Theta_e
309 311 313 315 315 316 317 308 305 304 304 304 303 303 302 303 302 306 307 306 306 301 302 304 304 304 304 307 306 307 309 311 312 311 310 308 308 308 307 308 307 308 308 306 306
308 310 311 312 315 316 316 312 307 304 302 303 302 303 303 303 307 307 304 302 302 301 304 305 306 305 307 307 306 307 310 313 309 309 308 308 307 308 307 308 308 308 306 303 305
309 309 310 311 313 315 315 314 309 306 303 302 302 303 302 303 308 308 301 302 302 301 303 304 305 307 307 307 307 307 310 308 308 307 306 306 306 307 307 308 309 310 309 305 305
311 312 313 313 314 315 315 313 312 308 303 302 302 302 302 307 316 304 301 301 301 302 304 305 306 308 309 309 308 306 307 307 306 306 306 306 306 306 306 308 306 308 308 307 305
314 314 313 313 314 314 314 314 312 309 303 302 302 302 306 309 309 301 300 301 302 303 304 306 306 308 309 309 307 307 307 307 306 306 305 305 305 306 306 307 307 306 304 306 306
314 314 314 313 313 313 312 312 314 307 303 302 302 302 307 310 301 301 301 301 303 303 304 304 306 306 307 307 307 307 306 306 306 306 306 305 305 304 306 307 306 306 305 305 305
315 314 313 313 312 311 311 311 313 305 303 302 302 306 306 307 301 302 301 302 302 304 304 303 304 305 305 306 305 305 305 308 308 307 306 304 305 305 306 307 305 306 305 305 305
315 313 312 312 311 310 310 312 309 303 302 303 302 305 308 300 301 301 301 302 302 302 303 302 303 304 305 305 305 306 308 314 308 305 304 303 311 312 306 305 306 306 306 306 305
315 312 312 311 310 309 311 312 305 303 303 303 304 305 308 300 301 301 302 303 302 303 302 302 303 305 305 307 313 311 314 315 313 306 306 305 309 310 306 306 306 307 307 306 305
310 310 310 309 309 309 311 305 304 303 304 302 302 308 302 303 301 300 301 302 303 303 305 305 306 308 308 310 321 316 314 312 311 309 306 307 308 308 308 308 308 307 307 307 306
305 306 305 305 305 308 310 306 309 310 304 310 309 307 303 300 300 301 300 302 302 303 307 306 308 312 312 310 309 307 308 309 309 309 306 306 307 308 308 308 308 308 308 307 305
302 302 303 303 303 306 307 309 309 307 315 306 304 302 300 301 303 301 300 302 304 307 304 306 310 307 305 305 305 306 307 308 308 305 303 306 306 307 307 307 306 304 303 302 301
301 303 304 304 304 308 306 306 304 306 315 309 302 303 301 300 304 302 301 302 304 305 306 308 307 303 304 305 306 307 308 308 307 305 305 305 309 312 306 303 302 301 300 300 300
302 302 305 304 305 306 307 304 305 305 316 312 302 301 299 300 301 299 299 302 303 305 304 306 304 304 305 306 305 310 304 303 304 306 312 305 314 312 311 306 303 302 302 299 298
300 300 304 305 308 305 303 304 305 306 319 309 300 297 299 300 301 300 298 300 305 305 305 308 305 305 306 306 303 308 302 303 304 306 308 310 310 313 306 305 303 302 300 299 296
298 299 304 306 305 303 302 303 305 315 314 304 299 300 301 301 301 300 301 300 301 303 303 305 301 302 304 301 301 302 304 306 305 307 311 309 309 314 308 307 303 301 300 297 296
299 299 304 305 306 303 303 306 316 313 307 305 301 302 307 304 304 303 304 305 309 314 313 309 307 302 302 304 303 304 308 317 318 313 318 303 305 309 306 303 301 301 299 297 296
299 300 304 303 304 302 304 312 313 312 311 305 303 306 309 306 307 307 309 310 306 308 313 316 315 305 302 306 307 307 308 314 317 318 315 301 310 309 302 300 299 297 296 297 296
299 303 303 303 302 302 308 313 315 311 308 308 306 310 310 307 307 307 309 310 308 307 315 313 313 301 301 302 303 305 307 304 309 302 307 310 309 303 302 302 302 303 298 297 295
302 304 305 302 302 303 310 312 309 304 307 308 315 311 314 309 308 309 309 306 305 304 304 307 313 303 300 300 300 303 302 307 307 311 314 312 312 315 307 305 300 299 297 296 295
302 304 303 301 302 307 311 310 303 304 306 308 310 308 310 309 308 308 308 305 303 303 303 305 306 305 301 302 305 302 304 303 303 306 313 315 314 304 307 300 298 298 297 297 295
302 304 300 301 306 305 309 305 302 304 303 305 306 306 309 306 308 308 307 305 303 303 305 303 305 308 308 299 298 301 305 305 309 309 306 305 311 301 299 296 296 298 299 297 295
303 303 300 301 307 307 302 303 303 302 303 304 305 306 304 304 307 305 304 302 302 302 303 302 304 310 307 301 299 301 302 303 301 302 308 310 311 296 295 301 302 299 297 294 293
303 303 302 301 302 305 304 304 304 302 303 304 304 303 303 304 302 303 304 301 300 300 300 301 302 306 310 308 305 304 302 301 302 306 305 306 308 303 301 301 298 297 295 294 293
301 301 297 302 303 303 304 304 303 303 301 303 303 305 304 304 302 302 303 300 300 300 301 301 302 300 300 300 301 302 302 303 302 302 305 304 299 301 301 297 295 294 297 295 294
301 301 296 300 300 303 303 303 303 302 302 302 303 303 304 303 303 303 303 302 302 300 301 300 301 297 299 298 298 299 300 300 302 301 302 301 300 298 297 297 298 297 296 294 294
297 297 300 301 300 302 303 302 302 302 301 301 301 302 303 303 301 300 300 300 301 300 300 299 300 300 305 296 297 302 298 299 299 296 300 302 301 296 297 296 297 296 295 293 293
Wind_Speed
2 2 4 5 6 6 8 8 8 7 6 6 5 4 3 3 1 2 2 1 3 6 3 3 2 2 3 3 3 3 6 9 13 8 3 2 4 5 2 7 4 7 4 5 16
2 2 3 5 6 7 8 8 8 8 7 6 5 4 3 1 2 3 3 0 3 4 3 4 3 4 3 3 3 7 6 8 7 6 7 4 6 6 4 9 13 11 7 6 17
3 3 4 6 6 7 8 8 8 9 8 7 5 3 2 1 4 2 1 0 2 2 1 2 2 5 7 4 6 5 7 7 5 6 6 8 9 8 7 12 14 13 14 12 16
3 4 4 6 7 8 9 8 8 10 8 6 4 2 1 2 4 3 1 2 1 1 1 2 4 4 6 8 6 6 13 11 6 2 4 8 7 8 13 20 3 7 5 14 14
4 3 5 7 9 9 10 11 9 9 7 6 3 1 1 5 1 1 1 2 1 1 2 3 6 5 8 4 5 12 11 8 10 9 11 12 15 14 18 17 14 8 5 11 13
6 7 8 8 10 11 11 11 11 9 4 3 2 1 4 7 4 1 0 1 2 2 2 3 2 2 6 5 7 5 9 13 11 13 9 10 14 4 15 12 12 17 15 13 14
9 9 10 11 12 14 13 12 11 8 4 2 1 2 6 2 2 3 1 1 2 1 2 1 1 4 2 5 3 6 10 12 13 8 7 5 12 16 18 15 9 10 12 14 15
12 11 12 11 13 13 12 10 7 5 4 2 2 2 1 2 2 2 2 2 2 2 2 1 1 2 4 3 5 6 6 7 6 4 3 4 14 5 4 4 8 9 11 11 11
13 10 10 12 11 11 10 7 5 4 3 2 1 4 2 3 4 2 2 2 1 1 1 1 2 3 2 5 9 7 9 12 9 2 2 8 12 4 2 6 11 12 9 9 8
7 7 10 11 10 10 10 5 4 2 2 2 2 3 5 3 4 3 2 2 2 3 2 4 4 5 5 6 4 8 10 12 11 3 6 14 22 20 21 20 18 17 14 14 14
4 6 8 10 11 9 5 2 4 4 6 4 3 2 6 5 3 2 1 3 3 4 4 2 5 7 4 5 10 9 12 16 16 16 9 16 20 20 19 18 18 17 14 12 11
2 5 9 12 10 8 4 4 3 2 5 2 1 1 3 4 4 4 1 5 5 6 4 4 7 4 2 2 5 8 12 14 11 5 3 14 23 25 23 16 9 7 4 1 3
6 9 11 12 7 6 7 4 2 2 5 4 3 3 2 5 3 5 2 2 5 6 8 7 3 1 4 5 6 9 10 12 13 15 15 13 15 6 3 4 5 5 6 5 4
7 8 13 7 3 4 3 6 3 2 4 7 5 3 4 3 4 1 1 1 4 5 4 5 4 2 4 6 4 6 4 5 8 8 6 5 8 13 6 5 3 5 5 5 5
10 9 10 4 5 3 3 7 4 1 4 7 5 3 3 3 5 2 1 3 4 4 3 3 3 3 3 2 1 3 5 6 7 7 10 5 5 5 3 7 7 7 6 5 4
13 10 9 3 3 4 8 8 3 2 9 5 5 6 6 4 3 4 3 2 1 2 2 3 1 1 1 1 3 5 6 9 4 3 5 1 5 3 5 3 7 7 6 4 4
12 8 7 5 1 8 9 3 3 6 1 5 5 7 8 5 4 6 5 6 3 4 5 3 4 2 2 5 3 2 4 2 4 4 3 2 4 6 3 3 4 5 7 7 6
10 5 8 9 6 11 6 3 8 1 2 1 4 8 6 6 3 5 4 6 4 2 3 4 4 5 1 2 1 1 1 3 6 4 5 4 5 2 2 0 3 4 5 7 8
6 4 3 7 10 11 4 8 4 2 3 8 6 4 5 3 1 6 6 3 3 6 4 4 2 4 5 2 1 3 4 3 4 2 3 4 4 4 4 5 3 5 9 9 8
3 3 4 7 10 5 3 9 1 0 2 2 5 3 8 6 6 5 6 2 5 2 1 2 1 1 3 2 1 3 2 2 3 4 4 4 5 4 7 3 10 9 10 9 8
5 3 4 10 9 3 5 5 3 2 0 3 3 3 2 5 7 5 5 3 2 5 1 5 1 3 1 6 5 4 3 4 2 3 3 4 1 2 10 4 7 8 8 8 9
4 2 5 11 4 1 2 4 3 4 1 2 3 2 4 5 4 6 7 1 4 5 4 3 1 5 3 2 1 3 2 5 3 4 2 3 4 2 4 2 5 9 10 10 8
3 3 3 3 5 3 1 1 2 4 4 5 6 3 2 6 4 5 5 4 5 3 3 4 5 3 3 1 2 5 6 4 1 1 8 4 1 1 2 8 5 10 12 10 10
2 4 2 2 1 6 5 4 4 4 4 4 4 4 3 4 2 5 6 3 5 3 2 2 4 7 3 3 2 4 7 9 8 5 5 10 10 4 11 13 15 13 11 12 9
3 2 1 5 5 4 9 7 9 6 3 5 4 5 6 5 4 4 6 5 4 6 2 3 5 2 8 10 9 12 11 11 14 12 7 3 5 8 12 10 8 9 8 11 10
2 2 1 1 3 13 9 9 11 5 8 5 6 9 6 4 4 6 9 7 5 6 6 4 1 1 4 1 2 5 10 13 15 16 14 15 19 1 6 6 7 9 7 10 11
4 2 3 4 4 9 14 12 11 9 8 3 10 5 7 7 5 5 5 5 2 7 9 5 3 2 3 2 7 7 6 9 4 1 8 11 4 5 9 11 10 8 8 9 11
Wind_Direction
331 15 355 354 352 1 1 360 354 344 328 319 308 300 288 309 315 205 214 296 325 333 332 278 237 186 207 196 250 283 246 255 259 277 319 112 244 148 342 260 217 198 279 82 146
282 337 333 332 341 347 350 350 351 345 326 311 305 297 290 357 236 185 206 120 345 355 313 253 221 198 203 206 206 230 246 273 355 314 284 297 275 300 255 226 231 222 194 151 158
294 309 316 313 326 336 336 339 346 343 332 315 302 271 279 360 241 127 215 7 343 350 305 273 261 244 242 219 198 201 246 6 275 295 299 288 273 238 258 259 246 236 220 189 188
277 303 318 326 327 329 327 329 338 336 332 321 297 260 217 233 279 127 222 315 308 302 235 209 219 227 253 226 203 258 245 275 289 292 271 261 290 251 243 250 359 335 287 174 201
269 289 311 324 320 323 320 321 324 330 329 325 294 229 174 225 140 139 27 354 330 226 232 230 236 252 252 259 246 243 269 280 267 267 262 272 258 267 267 261 259 223 218 202 210
258 283 285 296 307 313 317 315 318 320 319 319 301 262 247 243 124 76 66 34 5 268 213 227 281 291 281 251 236 347 292 277 278 267 264 259 272 275 257 263 261 247 228 234 228
255 267 281 288 296 306 306 309 314 309 293 252 231 294 255 3 123 82 50 85 38 315 245 70 339 239 334 255 293 283 289 281 249 253 258 286 256 233 259 264 250 258 249 240 229
238 252 275 281 292 303 304 305 306 294 284 249 201 239 308 157 160 79 131 105 73 62 100 72 334 276 249 333 244 266 258 285 110 157 145 231 274 271 50 302 264 255 251 232 228
227 245 264 278 291 303 313 303 287 259 241 248 241 245 186 159 175 124 105 171 150 115 101 131 240 289 220 256 275 205 284 287 302 139 295 227 294 313 207 288 277 280 257 234 212
219 259 268 271 286 305 315 301 267 228 229 237 222 233 164 168 142 141 97 142 214 182 206 214 219 242 225 230 259 313 289 290 275 193 242 274 271 275 275 273 273 270 261 249 235
223 258 278 280 282 288 318 256 200 201 219 277 108 71 133 119 146 147 103 177 200 229 231 184 231 222 277 271 295 293 285 285 285 292 289 273 283 286 281 277 268 263 255 249 244
358 335 317 310 290 269 262 245 354 360 254 196 216 145 126 177 180 166 182 208 200 218 177 200 239 72 50 283 274 272 277 282 295 33 298 290 291 283 279 283 309 317 318 344 98
352 349 340 322 277 254 226 258 190 13 258 163 184 191 160 191 206 153 210 181 227 213 215 256 62 82 292 276 270 269 269 290 298 317 274 291 280 252 146 124 91 87 85 87 111
344 334 339 323 244 197 216 210 172 100 264 174 194 163 155 178 182 96 67 286 199 232 217 258 81 250 257 273 289 287 18 305 297 321 303 2 292 288 299 97 111 118 102 82 81
329 319 330 232 331 196 143 164 141 82 261 121 144 109 147 205 128 124 100 179 220 185 213 82 188 236 275 283 275 299 319 292 301 283 323 253 245 283 131 87 88 78 78 76 58
308 299 321 244 235 241 156 143 130 148 242 148 131 164 164 177 142 130 169 192 28 194 233 277 93 275 282 222 251 300 293 270 296 274 250 109 247 329 20 43 78 71 69 49 3
309 272 308 231 144 182 158 180 171 223 32 173 173 169 203 168 158 191 174 181 217 165 205 167 190 130 268 233 172 31 317 277 226 198 287 149 227 317 60 51 7 346 354 346 325
304 272 279 233 208 170 164 196 218 140 209 115 137 152 196 163 158 169 179 210 201 193 209 225 218 192 78 54 47 314 285 285 286 294 333 147 245 127 72 160 269 283 284 299 345
290 260 239 229 187 175 215 193 242 125 158 154 145 172 181 189 220 200 212 213 123 193 199 194 188 121 73 62 10 131 213 56 286 156 259 231 225 110 112 50 334 339 344 349 344
272 214 212 190 184 181 237 219 220 115 141 111 219 217 183 183 174 212 186 128 151 178 245 135 249 88 99 74 236 247 359 215 185 270 255 221 249 185 147 33 351 350 350 338 331
233 210 144 171 167 222 205 212 177 152 22 161 195 163 194 171 191 191 187 127 154 140 183 134 54 112 138 200 186 175 207 221 305 256 284 306 108 291 137 89 332 327 327 318 316
243 216 158 165 191 189 219 171 169 154 118 158 197 137 179 174 193 201 203 87 136 158 132 93 207 240 233 116 288 285 284 217 243 169 245 319 277 30 98 326 301 310 319 323 301
220 177 134 162 216 193 63 109 163 147 196 201 198 168 58 179 202 187 170 116 134 130 120 155 214 245 197 164 190 228 207 220 55 302 232 255 230 91 242 332 3 336 334 330 321
225 183 146 233 88 207 171 200 195 198 211 200 157 127 137 179 212 181 159 155 138 113 154 179 246 260 272 42 63 206 214 215 212 237 253 234 283 227 340 347 340 335 340 334 319
238 239 252 196 193 192 185 172 185 187 225 205 201 203 171 180 167 207 164 139 150 175 149 231 254 265 278 276 266 260 254 218 219 234 245 284 261 324 321 328 309 307 330 332 340
247 201 247 27 229 197 195 197 201 174 174 204 228 199 197 169 200 194 178 179 190 164 172 188 242 327 275 286 270 256 246 237 237 239 250 266 285 290 305 290 300 324 332 327 333
248 284 274 163 190 203 216 214 219 170 200 204 207 178 202 213 119 41 70 52 157 163 186 185 234 283 277 34 307 258 225 208 224 283 239 243 286 337 318 314 309 317 314 315 324